Location: Eferding
(48.3167°N, 14.0167°E)
Time: 16:24:51
(UTC+00:00)

Meteor 2-10 Rocket - Pass Details

Date: 12 November 2019
Orbit: 734 x 884 km, 81.2° (Epoch: 08 December)

Event Time Altitude Azimuth Distance (km) Brightness Sun altitude
Rises 16:29:11 0° 194° (SSW) 3,160 7.1 -10.1°
Reaches altitude 10° 16:31:31 10° 196° (SSW) 2,235 6.3 -10.5°
Maximum altitude 16:36:30 77° 282° (WNW) 761 3.6 -11.3°
Drops below altitude 10° 16:41:34 10° 9° (N) 2,264 5.7 -12.1°
Sets 16:43:56 0° 11° (N) 3,204 6.5 -12.5°
